Location: Deuil
(48.9767°N, 2.3272°E)
Time: 11:36:00
(UTC+00:00)

Cosmos 2228 - Pass Details

Date: 04 June 2022
Orbit: 586 x 617 km, 82.5° (Epoch: 01 July)

Event Time Altitude Azimuth Distance (km) Brightness Sun altitude
Rises 00:28:17 0° 357° (N) 2,881 8.0 -18.1°
Reaches altitude 10° 00:30:43 10° 8° (N) 1,967 6.9 -18.0°
Maximum altitude 00:34:38 32° 72° (ENE) 1,039 4.5 -17.9°
Enters shadow 00:37:41 15° 130° (SE) 1,656 5.0 -17.8°
